Weather History for KACT - July, 2013

Change the Weather History Date:

Saturday, July 27, 2013

  Actual Average Record
Temperature  
Mean Temperature 81 °F 86 °F  
Max Temperature 89 °F 98 °F 105 °F (1977)
Min Temperature 72 °F 75 °F 66 °F (1911)
Degree Days  
Heating Degree Days 0 0  
Month to date heating degree days 0 0  
Since 1 June heating degree days 0 0  
Since 1 July heating degree days 0 0  
Cooling Degree Days 16 21  
Month to date cooling degree days 513 542  
Year to date cooling degree days 1482 1482  
Since 1 June cooling degree days 1065 1030  
Growing Degree Days 32 (Base 50)    
Moisture  
Dew Point 70 °F    
Average Humidity 71    
Maximum Humidity 91    
Minimum Humidity 50    
Precipitation  
Precipitation 0.00 in 0.05 in 0.85 in (1928)
Month to date precipitation 5.50 1.56  
Year to date precipitation 21.21 19.88  
Sea Level Pressure  
Sea Level Pressure 29.95 in    
Wind  
Wind Speed 9 mph (NE)    
Max Wind Speed 17 mph    
Max Gust Speed 21 mph    
Visibility 10 miles    
Events      
T = Trace of Precipitation, MM = Missing Value Source: NWS Daily Summary

Daily Weather History Graph

Daily Weather History Graph

Search for Another Location

Airport or City:

Trip Planner

Search our weather history database for the weather conditions in past years. The results will help you decide how hot, cold, wet, or windy it might be!

Date:

Astronomy

Jul. 27, 2013 Rise Set
Actual Time 6:41 AM CDT 8:28 PM CDT
Civil Twilight 6:15 AM CDT 8:55 PM CDT
Nautical Twilight 5:42 AM CDT 9:27 PM CDT
Astronomical Twilight 5:08 AM CDT 10:01 PM CDT
Moon 11:43 PM CDT (7/27) 11:58 AM CDT (7/27)
Length of Visible Light 14h 40m
Length of Day
13h 46m
Waning Gibbous, 70% of the Moon is Illuminated
Jul 27
Waning Gibbous
Jul 29
Last Quarter
Aug 6
New
Aug 14
First Quarter
Aug 20
Full

Hourly Weather History & Observations

Time (CDT) Temp. Heat Index Dew Point Humidity Pressure Visibility Wind Dir Wind Speed Gust Speed Precip Events Conditions
12:51 AM 78.1 °F - 75.0 °F 90% 29.94 in 10.0 mi SW 6.9 mph - N/A   Overcast
1:51 AM 78.1 °F - 73.0 °F 84% 29.93 in 10.0 mi NNW 5.8 mph - N/A   Partly Cloudy
2:51 AM 78.1 °F - 73.9 °F 87% 29.91 in 10.0 mi NNW 8.1 mph - N/A   Mostly Cloudy
3:51 AM 77.0 °F - 73.9 °F 90% 29.93 in 10.0 mi North 3.5 mph - N/A   Overcast
4:01 AM 77.0 °F - 73.4 °F 89% 29.95 in 10.0 mi North 4.6 mph - N/A   Overcast
4:51 AM 77.0 °F - 73.9 °F 90% 29.93 in 10.0 mi NNE 8.1 mph - N/A   Overcast
5:51 AM 75.9 °F - 71.1 °F 85% 29.94 in 10.0 mi North 10.4 mph - N/A   Overcast
6:51 AM 75.0 °F - 70.0 °F 84% 29.95 in 10.0 mi North 11.5 mph - N/A   Overcast
7:51 AM 75.0 °F - 69.1 °F 82% 29.97 in 10.0 mi NNE 13.8 mph - N/A   Overcast
8:15 AM 75.2 °F - 69.8 °F 83% 30.00 in 10.0 mi NNE 13.8 mph - N/A   Overcast
8:51 AM 75.0 °F - 68.0 °F 79% 29.99 in 10.0 mi NNE 11.5 mph - N/A   Overcast
9:51 AM 75.0 °F - 69.1 °F 82% 29.99 in 10.0 mi North 10.4 mph - N/A   Overcast
10:51 AM 75.0 °F - 68.0 °F 79% 30.00 in 10.0 mi NNE 11.5 mph - N/A   Overcast
11:51 AM 75.9 °F - 68.0 °F 76% 30.01 in 10.0 mi NNE 9.2 mph - N/A   Overcast
12:51 PM 81.0 °F 83.3 °F 66.9 °F 62% 29.99 in 10.0 mi NNE 8.1 mph - N/A   Overcast
1:51 PM 84.9 °F 87.6 °F 66.9 °F 55% 29.98 in 10.0 mi NE 10.4 mph - N/A   Mostly Cloudy
2:51 PM 86.0 °F 88.8 °F 66.9 °F 53% 29.96 in 10.0 mi ENE 13.8 mph 18.4 mph N/A   Partly Cloudy
3:51 PM 88.0 °F 90.7 °F 66.9 °F 49% 29.94 in 10.0 mi ENE 11.5 mph 19.6 mph N/A   Clear
4:51 PM 88.0 °F 91.4 °F 68.0 °F 51% 29.92 in 10.0 mi NE 11.5 mph - N/A   Clear
5:51 PM 86.0 °F 88.8 °F 66.9 °F 53% 29.91 in 10.0 mi ENE 9.2 mph - N/A   Clear
6:51 PM 84.9 °F 88.2 °F 68.0 °F 57% 29.89 in 10.0 mi ENE 11.5 mph - N/A   Clear
7:51 PM 82.9 °F 85.8 °F 68.0 °F 60% 29.89 in 10.0 mi East 8.1 mph - N/A   Clear
8:51 PM 79.0 °F - 69.1 °F 72% 29.91 in 10.0 mi ESE 4.6 mph - N/A   Clear
9:51 PM 77.0 °F - 69.1 °F 76% 29.94 in 10.0 mi East 4.6 mph - N/A   Clear
10:51 PM 75.9 °F - 69.1 °F 79% 29.96 in 10.0 mi East 4.6 mph - N/A   Clear
11:51 PM 75.0 °F - 68.0 °F 79% 29.95 in 10.0 mi ENE 4.6 mph - N/A   Clear